W7KKE-3 Weather Reports


Display with metric or nautical units.
time (UTC)temp
F
wind
direction
speed
MPH
gust
MPH
rain 1hr
in
rain 24hr
in
rain mn
in
humidity
%
barometer
mb
20140829222109 65 218 3.0 6.0 0.00 0.01 0.01 80 1016.8
20140829221609 65 240 2.0 6.0 0.00 0.01 0.01 80 1016.8
20140829221110 65 250 2.0 4.0 0.00 0.01 0.01 80 1016.8
20140829220609 65 0 1.0 1.0 0.00 0.01 0.01 81 1016.9
20140829220109 65 0 0.0 5.0 0.00 0.01 0.01 81 1016.9
20140829215609 65 233 0.0 5.0 0.00 0.01 0.01 81 1016.9
20140829215109 64 77 0.0 5.0 0.00 0.01 0.01 81 1016.9
20140829214609 64 264 2.0 4.0 0.00 0.01 0.01 80 1017.0
20140829214110 64 198 0.0 5.0 0.00 0.01 0.01 80 1016.9
20140829213610 64 198 2.0 5.0 0.00 0.01 0.01 81 1017.0
20140829213110 64 249 1.0 5.0 0.00 0.01 0.01 81 1017.0
20140829212609 64 249 2.0 5.0 0.00 0.01 0.01 81 1017.0
20140829210610 64 189 0.0 5.0 0.00 0.01 0.01 80 1016.5
20140829210109 64 205 0.0 5.0 0.00 0.01 0.01 80 1016.7
20140829205609 64 222 2.0 5.0 0.00 0.01 0.01 80 1016.7
20140829205110 64 249 2.0 4.0 0.00 0.01 0.01 80 1016.6
20140829204609 64 200 0.0 5.0 0.00 0.01 0.01 80 1016.7
20140829204109 64 211 2.0 5.0 0.00 0.01 0.01 80 1016.7
20140829203609 64 221 2.0 5.0 0.00 0.01 0.01 81 1016.7
20140829203111 64 235 2.0 5.0 0.00 0.01 0.01 81 1016.7
20140829202609 64 226 3.0 4.0 0.00 0.01 0.01 81 1016.8
20140829202109 63 226 1.0 4.0 0.00 0.01 0.01 81 1016.9
20140829201609 63 197 0.0 5.0 0.00 0.01 0.01 81 1017.0
20140829201109 63 197 2.0 5.0 0.00 0.01 0.01 81 1017.0
20140829200610 63 231 2.0 5.0 0.00 0.01 0.01 80 1017.1
20140829200109 64 231 2.0 5.0 0.00 0.01 0.01 80 1017.1
20140829195609 64 266 2.0 6.0 0.00 0.01 0.01 80 1017.1
20140829195109 64 266 0.0 6.0 0.00 0.01 0.01 80 1017.0
20140829194609 64 240 1.0 6.0 0.00 0.01 0.01 79 1017.0
20140829193108 64 267 0.0 4.0 0.00 0.01 0.01 80 1017.0
20140829192608 64 273 0.0 4.0 0.00 0.01 0.01 80 1017.1
20140829192109 64 232 2.0 4.0 0.00 0.01 0.01 80 1016.9
20140829191609 65 217 0.0 6.0 0.00 0.01 0.01 79 1016.9
20140829190109 67 281 2.0 5.0 0.00 0.01 0.01 78 1016.9
20140829185110 68 240 1.0 3.0 0.00 0.01 0.01 77 1016.8
20140829184608 68 240 0.0 3.0 0.00 0.01 0.01 77 1016.8
20140829184109 69 252 0.0 7.0 0.00 0.01 0.01 75 1016.7
20140829183610 69 252 4.0 7.0 0.00 0.01 0.01 77 1016.7
20140829183108 69 224 2.0 6.0 0.00 0.01 0.01 76 1016.6
20140829182609 69 229 1.0 6.0 0.00 0.01 0.01 77 1016.5
20140829181610 69 208 3.0 5.0 0.00 0.01 0.01 77 1016.5
20140829181109 69 0 0.0 0.0 0.00 0.01 0.01 78 1016.5
20140829174108 67 0 0.0 1.0 0.00 0.01 0.01 81 1016.7
20140829171609 67 0 0.0 0.0 0.00 0.01 0.01 83 1016.6
20140829171110 67 0 0.0 0.0 0.00 0.01 0.01 84 1016.6
20140829170609 66 0 0.0 0.0 0.00 0.01 0.01 84 1016.6
20140829170110 66 0 0.0 0.0 0.00 0.01 0.01 85 1016.4
20140829165610 66 0 0.0 0.0 0.00 0.01 0.01 85 1016.5
20140829165108 66 0 0.0 0.0 0.00 0.01 0.01 85 1016.5
20140829164608 65 0 0.0 0.0 0.00 0.01 0.01 86 1016.4
20140829164109 65 0 0.0 0.0 0.00 0.01 0.01 86 1016.6
20140829163609 65 0 0.0 0.0 0.00 0.01 0.01 86 1016.6
20140829163108 65 0 0.0 0.0 0.00 0.01 0.01 87 1016.5
20140829162609 64 0 0.0 0.0 0.00 0.01 0.01 88 1016.4
20140829162110 64 0 0.0 0.0 0.00 0.01 0.01 88 1016.4
20140829161609 64 0 0.0 0.0 0.00 0.01 0.01 90 1016.5
20140829161110 64 0 0.0 0.0 0.00 0.01 0.01 90 1016.6
20140829160611 63 0 0.0 0.0 0.00 0.01 0.01 90 1016.6
20140829160109 63 0 0.0 0.0 0.00 0.01 0.01 90 1016.6
20140829155609 63 0 0.0 0.0 0.00 0.01 0.01 90 1016.6
20140829155108 62 0 0.0 0.0 0.00 0.01 0.01 91 1016.6
20140829154608 62 0 0.0 0.0 0.00 0.01 0.01 91 1016.7
20140829154110 62 0 0.0 0.0 0.00 0.01 0.01 91 1016.8
20140829153609 62 0 0.0 0.0 0.00 0.01 0.01 91 1016.9
20140829153108 62 0 0.0 0.0 0.00 0.01 0.01 92 1017.0
20140829152609 61 0 0.0 0.0 0.00 0.01 0.01 92 1017.0
20140829152109 61 0 0.0 0.0 0.00 0.01 0.01 92 1017.1
20140829151608 61 0 0.0 0.0 0.00 0.01 0.01 92 1017.2
20140829151108 61 0 0.0 0.0 0.00 0.01 0.01 92 1017.3
20140829150608 61 0 0.0 0.0 0.00 0.01 0.01 92 1017.3
20140829150109 61 0 0.0 0.0 0.00 0.01 0.01 92 1017.2
20140829145608 61 0 0.0 0.0 0.00 0.01 0.01 92 1017.2
20140829145108 61 0 0.0 0.0 0.00 0.01 0.01 92 1017.0
20140829144608 61 0 0.0 0.0 0.00 0.01 0.01 92 1017.0
20140829144108 61 0 0.0 0.0 0.00 0.01 0.01 92 1017.0
20140829143608 60 0 0.0 0.0 0.00 0.01 0.01 92 1016.8
20140829143108 61 0 0.0 0.0 0.00 0.01 0.01 92 1016.6
20140829142608 60 0 0.0 0.0 0.00 0.01 0.01 92 1016.5
20140829142108 60 0 0.0 0.0 0.00 0.01 0.01 92 1016.6
20140829141608 60 0 0.0 0.0 0.00 0.01 0.01 92 1016.5
20140829141109 60 0 0.0 0.0 0.00 0.01 0.01 92 1016.5
20140829140111 60 0 0.0 0.0 0.00 0.01 0.01 92 1016.3
20140829135612 60 0 0.0 0.0 0.00 0.01 0.01 92 1016.3
20140829135109 60 0 0.0 0.0 0.00 0.01 0.01 92 1016.4
20140829134609 60 0 0.0 0.0 0.00 0.01 0.01 92 1016.3
20140829134109 60 0 0.0 0.0 0.00 0.01 0.01 92 1016.3
20140829133608 60 0 0.0 0.0 0.00 0.01 0.01 92 1016.3
20140829133108 60 0 0.0 0.0 0.00 0.01 0.01 92 1016.2
20140829132608 60 0 0.0 0.0 0.00 0.01 0.01 92 1016.1
20140829132109 60 0 0.0 0.0 0.00 0.01 0.01 92 1016.1
20140829131609 60 0 0.0 0.0 0.00 0.01 0.01 92 1016.2
20140829131108 60 0 0.0 0.0 0.00 0.01 0.01 92 1016.2
20140829130609 60 0 0.0 0.0 0.00 0.01 0.01 92 1016.1
20140829130112 60 0 0.0 0.0 0.00 0.01 0.01 92 1016.2
20140829125609 60 0 0.0 0.0 0.00 0.01 0.01 92 1016.1
20140829125108 60 0 0.0 0.0 0.00 0.01 0.01 92 1016.1
20140829124609 60 0 0.0 0.0 0.00 0.01 0.01 92 1016.1
20140829124111 60 0 0.0 0.0 0.00 0.01 0.01 92 1016.0
20140829123608 60 336 0.0 5.0 0.00 0.01 0.01 92 1016.0
20140829122609 59 303 2.0 5.0 0.00 0.01 0.01 92 1016.0
20140829121608 59 278 1.0 2.0 0.00 0.01 0.01 91 1016.1
20140829121109 59 0 0.0 0.0 0.00 0.01 0.01 91 1016.1
20140829120610 59 0 0.0 0.0 0.00 0.01 0.01 91 1016.1
20140829120108 59 0 0.0 0.0 0.00 0.01 0.01 91 1016.3
20140829115609 59 0 0.0 5.0 0.00 0.01 0.01 91 1016.3
20140829115108 59 0 0.0 5.0 0.01 0.01 0.01 91 1016.3
20140829114609 59 298 0.0 5.0 0.01 0.01 0.01 91 1016.3
20140829114109 59 0 2.0 2.0 0.01 0.01 0.01 91 1016.3
20140829113609 59 0 0.0 0.0 0.01 0.01 0.01 91 1016.4
20140829113108 59 0 0.0 0.0 0.01 0.01 0.01 91 1016.5
20140829112608 60 0 0.0 0.0 0.01 0.01 0.01 91 1016.5
20140829112108 60 0 0.0 0.0 0.01 0.01 0.01 91 1016.5
20140829111608 60 0 0.0 0.0 0.01 0.01 0.01 91 1016.5
20140829111109 60 0 0.0 0.0 0.01 0.01 0.01 91 1016.5
20140829110608 60 0 0.0 0.0 0.01 0.01 0.01 91 1016.6
20140829110109 60 0 0.0 0.0 0.01 0.01 0.01 91 1016.6
20140829105608 60 308 0.0 5.0 0.01 0.01 0.01 91 1016.6
20140829105108 60 327 0.0 5.0 0.00 0.01 0.01 91 1016.6
20140829104609 60 345 0.0 5.0 0.00 0.00 0.00 91 1016.6
20140829104108 60 299 2.0 4.0 0.00 0.00 0.00 91 1016.6
20140829103608 60 306 0.0 4.0 0.00 0.00 0.00 90 1016.6
20140829103109 60 0 0.0 2.0 0.00 0.00 0.00 90 1016.6
20140829102609 61 320 0.0 9.0 0.00 0.00 0.00 91 1016.6
20140829102109 61 320 0.0 9.0 0.00 0.00 0.00 91 1016.5
20140829101608 61 308 2.0 9.0 0.00 0.00 0.00 91 1016.5
20140829101108 60 308 4.0 9.0 0.00 0.00 0.00 91 1016.5
20140829100608 60 315 6.0 6.0 0.00 0.00 0.00 91 1016.5
20140829100108 60 316 4.0 9.0 0.00 0.00 0.00 90 1016.5
20140829095608 60 316 5.0 9.0 0.00 0.00 0.00 90 1016.6
20140829095108 60 333 4.0 9.0 0.00 0.00 0.00 90 1016.5
20140829094608 60 327 5.0 7.0 0.00 0.00 0.00 90 1016.6
20140829093610 61 310 4.0 6.0 0.00 0.00 0.00 90 1016.5
20140829093108 61 310 2.0 6.0 0.00 0.00 0.00 90 1016.5
20140829092608 61 326 0.0 6.0 0.00 0.00 0.00 90 1016.4
20140829092111 61 0 1.0 1.0 0.00 0.00 0.00 90 1016.5
20140829091609 61 323 0.0 6.0 0.00 0.00 0.00 90 1016.5
20140829091108 61 313 0.0 6.0 0.00 0.00 0.00 90 1016.5
20140829090608 61 327 0.0 6.0 0.00 0.00 0.00 90 1016.5
20140829090108 60 334 4.0 7.0 0.00 0.00 0.00 90 1016.5
20140829085608 61 334 4.0 7.0 0.00 0.00 0.00 90 1016.6
20140829085108 61 313 2.0 7.0 0.00 0.00 0.00 90 1016.6
20140829084610 60 313 5.0 7.0 0.00 0.00 0.00 90 1016.7
20140829084108 60 302 3.0 8.0 0.00 0.00 0.00 90 1016.6
20140829082109 61 303 5.0 8.0 0.00 0.00 0.00 89 1016.8
20140829081611 61 306 5.0 8.0 0.00 0.00 0.00 89 1016.8
20140829075608 62 280 0.0 6.0 0.00 0.00 0.00 88 1016.7
20140829074609 62 289 4.0 5.0 0.00 0.00 0.00 88 1016.6
20140829074109 62 301 3.0 3.0 0.00 0.00 0.00 89 1016.6
20140829073609 62 0 0.0 6.0 0.00 0.00 0.00 88 1016.5
20140829073110 62 0 0.0 6.0 0.00 0.00 0.00 88 1016.5
20140829072609 62 0 4.0 4.0 0.00 0.00 0.00 88 1016.6
20140829072109 62 294 0.0 5.0 0.00 0.00 0.00 88 1016.7
20140829071610 62 301 0.0 5.0 0.00 0.00 0.00 88 1016.7
20140829071109 62 301 0.0 5.0 0.00 0.00 0.00 88 1016.7
20140829070608 62 0 0.0 5.0 0.00 0.00 0.00 88 1016.8
20140829064610 62 324 1.0 3.0 0.00 0.00 0.00 88 1016.8
20140829064110 63 0 0.0 1.0 0.00 0.00 0.00 88 1016.8
20140829060609 62 333 0.0 7.0 0.00 0.00 0.00 88 1017.1
20140829060108 63 322 2.0 7.0 0.00 0.00 0.00 88 1017.3
20140829055610 62 344 2.0 6.0 0.00 0.00 0.00 88 1017.3
20140829053608 62 309 5.0 7.0 0.00 0.00 0.00 88 1017.4
20140829053108 62 319 4.0 6.0 0.00 0.00 0.00 88 1017.3
20140829052608 62 309 4.0 6.0 0.00 0.00 0.00 87 1017.3
20140829052110 63 323 4.0 5.0 0.00 0.00 0.00 87 1017.4
20140829051608 62 336 2.0 9.0 0.00 0.00 0.00 87 1017.4
20140829051108 62 327 5.0 9.0 0.00 0.00 0.00 87 1017.5
20140829050608 62 334 4.0 9.0 0.00 0.00 0.00 87 1017.5
20140829050109 63 316 5.0 9.0 0.00 0.00 0.00 87 1017.6
20140829045609 63 315 5.0 9.0 0.00 0.00 0.00 87 1017.7
20140829045109 63 315 6.0 9.0 0.00 0.00 0.00 87 1017.7
20140829044611 63 322 6.0 11.0 0.00 0.00 0.00 87 1017.8
20140829043108 63 315 4.0 8.0 0.00 0.00 0.00 86 1017.8
20140829042609 63 315 4.0 10.0 0.00 0.00 0.00 86 1017.8
20140829042109 63 334 6.0 10.0 0.00 0.00 0.00 86 1017.8
20140829040110 63 315 6.0 9.0 0.00 0.00 0.00 86 1017.9
20140829035608 63 315 6.0 9.0 0.00 0.00 0.00 86 1017.8
20140829035109 63 315 5.0 9.0 0.00 0.00 0.00 86 1017.8
20140829034611 63 323 3.0 9.0 0.00 0.00 0.00 86 1017.7
20140829034108 63 322 7.0 9.0 0.00 0.00 0.00 86 1017.7
20140829033608 63 322 5.0 9.0 0.00 0.00 0.00 86 1017.6
20140829033110 63 327 4.0 7.0 0.00 0.00 0.00 85 1017.6
20140829032608 63 322 2.0 6.0 0.00 0.00 0.00 85 1017.6
20140829032109 63 305 0.0 6.0 0.00 0.00 0.00 85 1017.6
20140829031608 63 333 4.0 6.0 0.00 0.00 0.00 85 1017.5
20140829031109 63 323 3.0 9.0 0.00 0.00 0.00 85 1017.5
20140829030609 63 341 3.0 9.0 0.00 0.00 0.00 85 1017.5
20140829030108 63 308 3.0 9.0 0.00 0.00 0.00 85 1017.5
20140829025608 63 324 6.0 9.0 0.00 0.00 0.00 85 1017.5
20140829025108 63 316 5.0 9.0 0.00 0.00 0.00 84 1017.4
20140829024608 63 308 4.0 9.0 0.00 0.00 0.00 84 1017.4
20140829024111 63 313 7.0 10.0 0.00 0.00 0.00 84 1017.4
20140829023609 64 310 7.0 10.0 0.00 0.00 0.00 84 1017.3
20140829022608 64 302 7.0 15.0 0.00 0.00 0.00 83 1017.4
20140829022108 64 320 8.0 15.0 0.00 0.00 0.00 83 1017.6
20140829021609 64 327 8.0 15.0 0.00 0.00 0.00 83 1017.6
20140829021110 64 327 10.0 15.0 0.00 0.00 0.00 83 1017.6
20140829020608 64 301 10.0 15.0 0.00 0.00 0.00 83 1017.5
20140829020108 64 303 9.0 15.0 0.00 0.00 0.00 83 1017.6
20140829015608 65 313 9.0 14.0 0.00 0.00 0.00 82 1017.8
20140829015109 65 305 8.0 13.0 0.00 0.00 0.00 82 1017.9
20140829014608 65 322 8.0 15.0 0.00 0.00 0.00 82 1017.9
20140829014108 65 296 9.0 15.0 0.00 0.00 0.00 82 1017.9
20140829013608 65 323 8.0 15.0 0.00 0.00 0.00 81 1018.0
20140829013108 65 298 8.0 14.0 0.00 0.00 0.00 81 1018.1
20140829012609 66 313 9.0 14.0 0.00 0.00 0.00 81 1018.1
20140829012108 66 309 9.0 13.0 0.00 0.00 0.00 81 1018.2
20140829011608 65 324 8.0 13.0 0.00 0.00 0.00 80 1018.3
20140829011108 66 305 8.0 12.0 0.00 0.00 0.00 79 1018.4
20140829010608 66 320 9.0 14.0 0.00 0.00 0.00 80 1018.3
20140829010108 66 322 9.0 14.0 0.00 0.00 0.00 80 1018.4
20140829005108 66 313 8.0 14.0 0.00 0.00 0.00 80 1018.4
20140829004608 66 336 10.0 15.0 0.00 0.00 0.00 80 1018.4
20140829004108 66 317 10.0 15.0 0.00 0.00 0.00 79 1018.5
20140829003608 66 326 10.0 15.0 0.00 0.00 0.00 79 1018.6
20140829003108 66 287 11.0 16.0 0.00 0.00 0.00 78 1018.6
20140829002608 66 320 11.0 16.0 0.00 0.00 0.00 79 1018.6
20140829002110 67 315 11.0 16.0 0.00 0.00 0.00 78 1018.6
20140829001608 67 337 11.0 19.0 0.00 0.00 0.00 78 1018.6
20140829001108 66 316 11.0 19.0 0.00 0.00 0.00 79 1018.6
20140829000607 67 327 10.0 19.0 0.00 0.00 0.00 78 1018.7
20140829000109 67 312 13.0 16.0 0.00 0.00 0.00 77 1018.7
20140828235611 67 331 10.0 17.0 0.00 0.00 0.00 77 1018.8
20140828235107 67 323 11.0 17.0 0.00 0.00 0.00 76 1018.9
20140828234608 67 323 12.0 17.0 0.00 0.00 0.00 76 1018.9
20140828234107 67 323 10.0 17.0 0.00 0.00 0.00 76 1018.9
20140828233608 67 340 13.0 18.0 0.00 0.00 0.00 75 1018.9
20140828233108 68 326 12.0 18.0 0.00 0.00 0.00 75 1018.9
20140828232611 68 306 11.0 18.0 0.00 0.00 0.00 75 1019.0
20140828232108 68 313 13.0 17.0 0.00 0.00 0.00 75 1019.0
20140828231608 68 312 12.0 17.0 0.00 0.00 0.00 74 1019.1
20140828231108 68 295 11.0 16.0 0.00 0.00 0.00 74 1019.1
20140828230608 68 323 12.0 17.0 0.00 0.00 0.00 74 1019.2
20140828230107 68 316 10.0 17.0 0.00 0.00 0.00 75 1019.3
20140828225608 67 329 11.0 17.0 0.00 0.00 0.00 74 1019.3
20140828225109 67 306 10.0 15.0 0.00 0.00 0.00 74 1019.4
20140828224609 68 320 10.0 18.0 0.00 0.00 0.00 73 1019.5
20140828224108 68 320 11.0 18.0 0.00 0.00 0.00 73 1019.5
20140828223609 68 299 9.0 18.0 0.00 0.00 0.00 74 1019.7
20140828223107 68 312 13.0 17.0 0.00 0.00 0.00 73 1019.6
20140828222609 68 310 11.0 20.0 0.00 0.00 0.00 74 1019.7